Погода в Джелонге

Австралия     38°08′39″S   144°20′08″E
темп.,
°C
ветер,
м/с
пор.,
м/с
влажн.,
%
обл.,
%
осадки,
мм/ч
давл.,
гПа
погр.,
м
19 мая, ср
ср1901:00+12ссз276940 0.0 1026201
04:00+9ссз248184 0.0 102570
07:00+8сз238421 0.0 102665
10:00+14сз41162100 0.0 1026709
13:00+16сз6946100 0.0 10241205
16:00+16сз3850100 0.0 1023558
19:00+11ссз2562100 0.0 102485
22:00+12ссз3135693 0.0 1023391
20 мая, чт
чт2001:00+13ссз4135093 0.0 1022430
04:00+12сз31251100 0.0 1022375
07:00+12сз31050100 0.0 1023333
10:00+14зсз51346100 0.0 1025628
13:00+14з51160100 0.0 1025798
16:00+13з256976 0.1 1026390
19:00+12ююз1283100 0.0 102995
22:00+10ю248030 0.0 103090
21 мая, пт
пт2101:00+7ююв118522 0.0 103011
04:00+7ю11870 0.0 103111
07:00+6сз00880 0.0 103111
10:00+12св22710 0.0 1031342
13:00+16св22510 0.0 1029791
16:00+15всв23540 0.0 1028287
19:00+8св11760 0.0 102911
22:00+8ссв11760 0.0 102911
22 мая, сб
сб2201:00+8ссз11790 0.0 102812
04:00+7сз11820 0.0 102719
07:00+7сз21860 0.0 102829
10:00+14ссз24610 0.0 1027264
13:00+19сз24420 0.0 10251134
16:00+18з23495 0.0 102586
19:00+12з116717 0.0 102611
22:00+11ссз11715 0.0 102612
23 мая, вс
вс2301:00+10ссз117577 0.0 102611
04:00+10с1177100 0.0 102612
07:00+9ссв118553 0.0 102611
10:00+15св236679 0.0 1026238
13:00+19св3454100 0.0 1024770
16:00+17в3659100 0.0 1023315
19:00+13ссв2272100 0.0 102421
22:00+12св227779 0.0 102424